PIESAT-2 09

Last updated on Thu Jan 16 2025 00:02:04 GMT+0000 (Coordinated Universal Time)

1 62333U 24241A 25015.59890417 .00014550 00000+0 86536-3 0 9991 2 62333 97.4933 325.1834 0006159 138.9890 221.1804 15.11340836 4508
UTC large
Height (km)
Speed (km/s)
/
Latitude / Longitude
Inclination (degrees)
Orbital Period (minutes)
Azimuth
Elevation
Range (km)
Doppler Factor

Next 0 passes for location: London (51.5072 / 0.1276)

Sorry there are no passes over London.